STARLINK-33756 (63458 NORAD) Tracking and Keplerian Element Data

This shows tracking and keplerian element data for the satellite.

Feedback or suggestion? Click here.




ElementValue
Catalog63458
NameSTARLINK-33756
Epoch Orbit4122
Epoch Day354.15130554
Epoch Year2025
RAAN152.1476
Inclination53.1588
Eccentricity6.99E-05
Argument of Perigee110.829
Mean Anonmoly249.2786
Mean Motion15.30205756
Decay Rate0.00012915
L11 63458U 25069AB 25354.15130554 .00012915 00000+0 44732-3 0 9991
L22 63458 53.1588 152.1476 0000699 110.8290 249.2786 15.30205756 41220



Live tracking and technical data element details for STARLINK-33756 (NORAD 63458). STARLINK-33756 can be tracked NOW for your location showing map with azimuth and elevation plus other details from your city location.







IsCatalogInMostPopularTable: catalog: 63458, numindb: 2
Update: records affected: 1



GetName: 63458 STARLINK-33756

Hit Count: updated at: Sun, 08 Feb 2026 07:19:57 GMT